| time (UTC) | temp C | wind direction | speed KPH | gust KPH | rain 1hr cm | rain 24hr cm | rain mn cm | humidity % | barometer mb |
| 20260502230835 | 3 | 337 | 3.2 | 3.2 | 0.00 | 0.00 | 0.00 | 79 | 1019.1 |
| 20260502230335 | 3 | 0 | 3.2 | 3.2 | 0.00 | 0.00 | 0.00 | 79 | 1019.1 |
| 20260502225835 | 3 | 337 | 3.2 | 4.8 | 0.00 | 0.00 | 0.00 | 79 | 1019.2 |
| 20260502225335 | 3 | 0 | 1.6 | 4.8 | 0.00 | 0.00 | 0.00 | 79 | 1019.3 |
| 20260502224835 | 2 | 0 | 4.8 | 4.8 | 0.00 | 0.00 | 0.00 | 80 | 1019.4 |
| 20260502224335 | 2 | 337 | 1.6 | 4.8 | 0.00 | 0.00 | 0.00 | 80 | 1019.4 |
| 20260502223835 | 2 | 337 | 0.0 | 6.4 | 0.00 | 0.00 | 0.00 | 80 | 1019.4 |
| 20260502223335 | 2 | 22 | 0.0 | 3.2 | 0.00 | 0.00 | 0.00 | 80 | 1019.5 |
| 20260502222835 | 2 | 0 | 0.0 | 6.4 | 0.00 | 0.00 | 0.00 | 81 | 1019.6 |
| 20260502222336 | 2 | 337 | 1.6 | 1.6 | 0.00 | 0.00 | 0.00 | 81 | 1019.5 |
| 20260502221835 | 2 | 315 | 0.0 | 3.2 | 0.00 | 0.00 | 0.00 | 81 | 1019.6 |
| 20260502221335 | 2 | 337 | 0.0 | 4.8 | 0.00 | 0.00 | 0.00 | 81 | 1019.5 |
| 20260502220835 | 2 | 337 | 3.2 | 3.2 | 0.00 | 0.00 | 0.00 | 82 | 1019.6 |
| 20260502220335 | 2 | 337 | 0.0 | 4.8 | 0.00 | 0.00 | 0.00 | 82 | 1019.6 |
| 20260502215835 | 2 | 315 | 0.0 | 3.2 | 0.00 | 0.00 | 0.00 | 82 | 1019.7 |
| 20260502215335 | 2 | 315 | 0.0 | 3.2 | 0.00 | 0.00 | 0.00 | 82 | 1019.7 |
| 20260502214835 | 1 | 315 | 3.2 | 3.2 | 0.00 | 0.00 | 0.00 | 82 | 1019.8 |
| 20260502214335 | 1 | 0 | 0.0 | 1.6 | 0.00 | 0.00 | 0.00 | 82 | 1019.8 |
| 20260502213835 | 1 | 0 | 0.0 | 0.0 | 0.00 | 0.00 | 0.00 | 81 | 1019.8 |
| 20260502213335 | 2 | 337 | 0.0 | 1.6 | 0.00 | 0.00 | 0.00 | 81 | 1019.8 |
| 20260502212835 | 2 | 22 | 0.0 | 3.2 | 0.00 | 0.00 | 0.00 | 82 | 1019.8 |
| 20260502212335 | 2 | 337 | 0.0 | 3.2 | 0.00 | 0.00 | 0.00 | 81 | 1019.8 |
| 20260502211835 | 1 | 315 | 3.2 | 3.2 | 0.00 | 0.00 | 0.00 | 81 | 1019.9 |
| 20260502211335 | 2 | 337 | 0.0 | 0.0 | 0.00 | 0.00 | 0.00 | 80 | 1019.9 |
| 20260502210835 | 2 | 0 | 0.0 | 3.2 | 0.00 | 0.00 | 0.00 | 80 | 1019.9 |
| 20260502210336 | 2 | 22 | 3.2 | 3.2 | 0.00 | 0.00 | 0.00 | 80 | 1019.9 |
| 20260502205835 | 2 | 337 | 0.0 | 0.0 | 0.00 | 0.00 | 0.00 | 80 | 1019.9 |
| 20260502205335 | 2 | 315 | 0.0 | 1.6 | 0.00 | 0.00 | 0.00 | 80 | 1019.9 |
| 20260502204835 | 2 | 337 | 0.0 | 3.2 | 0.00 | 0.00 | 0.00 | 80 | 1019.8 |
| 20260502204335 | 2 | 337 | 1.6 | 1.6 | 0.00 | 0.00 | 0.00 | 79 | 1019.9 |
| 20260502203835 | 2 | 337 | 0.0 | 1.6 | 0.00 | 0.00 | 0.00 | 79 | 1019.9 |
| 20260502203335 | 3 | 337 | 0.0 | 1.6 | 0.00 | 0.00 | 0.00 | 79 | 1020.0 |
| 20260502202835 | 3 | 315 | 0.0 | 3.2 | 0.00 | 0.00 | 0.00 | 79 | 1019.9 |
| 20260502202335 | 3 | 315 | 1.6 | 3.2 | 0.00 | 0.00 | 0.00 | 79 | 1020.0 |
| 20260502201835 | 3 | 337 | 0.0 | 3.2 | 0.00 | 0.00 | 0.00 | 79 | 1020.1 |
| 20260502201335 | 3 | 337 | 0.0 | 3.2 | 0.00 | 0.00 | 0.00 | 79 | 1020.1 |
| 20260502200835 | 3 | 337 | 0.0 | 3.2 | 0.00 | 0.00 | 0.00 | 79 | 1020.0 |
| 20260502200335 | 3 | 337 | 0.0 | 1.6 | 0.00 | 0.00 | 0.00 | 79 | 1020.1 |
| 20260502195835 | 3 | 337 | 1.6 | 1.6 | 0.00 | 0.00 | 0.00 | 79 | 1020.2 |
| 20260502195335 | 3 | 337 | 0.0 | 1.6 | 0.00 | 0.00 | 0.00 | 79 | 1020.2 |
| 20260502194835 | 3 | 0 | 1.6 | 3.2 | 0.00 | 0.00 | 0.00 | 79 | 1020.2 |
| 20260502194335 | 3 | 337 | 1.6 | 1.6 | 0.00 | 0.00 | 0.00 | 79 | 1020.2 |
| 20260502193836 | 3 | 337 | 0.0 | 3.2 | 0.00 | 0.00 | 0.00 | 80 | 1020.2 |
| 20260502193336 | 3 | 0 | 1.6 | 3.2 | 0.00 | 0.00 | 0.00 | 80 | 1020.2 |
| 20260502192836 | 3 | 337 | 1.6 | 3.2 | 0.00 | 0.00 | 0.00 | 80 | 1020.2 |
| 20260502192336 | 3 | 315 | 0.0 | 3.2 | 0.00 | 0.00 | 0.00 | 80 | 1020.2 |
| 20260502191836 | 3 | 337 | 0.0 | 3.2 | 0.00 | 0.00 | 0.00 | 80 | 1020.2 |
| 20260502191336 | 3 | 0 | 1.6 | 3.2 | 0.00 | 0.00 | 0.00 | 81 | 1020.2 |
| 20260502190836 | 3 | 337 | 1.6 | 3.2 | 0.00 | 0.00 | 0.00 | 80 | 1020.2 |
| 20260502190336 | 3 | 0 | 3.2 | 3.2 | 0.00 | 0.00 | 0.00 | 80 | 1020.2 |
| 20260502185836 | 3 | 337 | 3.2 | 3.2 | 0.00 | 0.00 | 0.00 | 80 | 1020.2 |
| 20260502185336 | 3 | 337 | 0.0 | 3.2 | 0.00 | 0.00 | 0.00 | 80 | 1020.1 |
| 20260502184836 | 3 | 337 | 0.0 | 1.6 | 0.00 | 0.00 | 0.00 | 80 | 1020.0 |
| 20260502184336 | 3 | 337 | 1.6 | 3.2 | 0.00 | 0.00 | 0.00 | 80 | 1020.1 |
| 20260502183836 | 3 | 0 | 0.0 | 3.2 | 0.00 | 0.00 | 0.00 | 80 | 1019.9 |
| 20260502183336 | 4 | 0 | 0.0 | 3.2 | 0.00 | 0.00 | 0.00 | 80 | 1019.9 |
| 20260502182836 | 4 | 315 | 1.6 | 3.2 | 0.00 | 0.00 | 0.00 | 80 | 1020.0 |
| 20260502182336 | 4 | 0 | 0.0 | 3.2 | 0.00 | 0.00 | 0.00 | 80 | 1020.2 |
| 20260502181836 | 4 | 0 | 1.6 | 3.2 | 0.00 | 0.00 | 0.00 | 80 | 1020.3 |
| 20260502181336 | 4 | 337 | 1.6 | 3.2 | 0.00 | 0.00 | 0.00 | 80 | 1020.2 |
| 20260502180836 | 4 | 22 | 0.0 | 3.2 | 0.00 | 0.00 | 0.00 | 80 | 1020.0 |
| 20260502180336 | 4 | 0 | 0.0 | 3.2 | 0.00 | 0.00 | 0.00 | 80 | 1019.9 |
| 20260502170336 | 7 | 45 | 0.0 | 3.2 | 0.00 | 0.00 | 0.00 | 71 | 1019.5 |
| 20260502164336 | 8 | 90 | 4.8 | 9.7 | 0.00 | 0.00 | 0.00 | 68 | 1019.4 |
| 20260502163836 | 8 | 90 | 3.2 | 8.0 | 0.00 | 0.00 | 0.00 | 68 | 1019.4 |
| 20260502163336 | 8 | 45 | 1.6 | 3.2 | 0.00 | 0.00 | 0.00 | 68 | 1019.3 |
| 20260502162836 | 8 | 22 | 0.0 | 1.6 | 0.00 | 0.00 | 0.00 | 69 | 1019.3 |
| 20260502162336 | 8 | 45 | 1.6 | 3.2 | 0.00 | 0.00 | 0.00 | 68 | 1019.3 |
| 20260502161836 | 8 | 45 | 1.6 | 1.6 | 0.00 | 0.00 | 0.00 | 68 | 1019.3 |
| 20260502161336 | 8 | 45 | 0.0 | 1.6 | 0.00 | 0.00 | 0.00 | 68 | 1019.3 |
| 20260502160836 | 8 | 45 | 0.0 | 4.8 | 0.00 | 0.00 | 0.00 | 67 | 1019.3 |
| 20260502160336 | 8 | 67 | 1.6 | 3.2 | 0.00 | 0.00 | 0.00 | 66 | 1019.3 |
| 20260502152336 | 10 | 45 | 3.2 | 6.4 | 0.00 | 0.00 | 0.00 | 62 | 1019.4 |
| 20260502151836 | 10 | 45 | 6.4 | 6.4 | 0.00 | 0.00 | 0.00 | 61 | 1019.4 |
| 20260502151336 | 10 | 22 | 3.2 | 8.0 | 0.00 | 0.00 | 0.00 | 61 | 1019.5 |
| 20260502150836 | 11 | 67 | 1.6 | 9.7 | 0.00 | 0.00 | 0.00 | 62 | 1019.5 |
| 20260502150336 | 11 | 45 | 3.2 | 8.0 | 0.00 | 0.00 | 0.00 | 62 | 1019.5 |
| 20260502130336 | 15 | 157 | 6.4 | 14.5 | 0.00 | 0.00 | 0.00 | 50 | 1019.6 |
| 20260502123336 | 13 | 90 | 1.6 | 6.4 | 0.00 | 0.00 | 0.00 | 57 | 1019.8 |
| 20260502122836 | 12 | 22 | 6.4 | 9.7 | 0.00 | 0.00 | 0.00 | 58 | 1019.8 |
| 20260502122336 | 12 | 67 | 4.8 | 9.7 | 0.00 | 0.00 | 0.00 | 59 | 1019.9 |
| 20260502121836 | 11 | 45 | 6.4 | 12.9 | 0.00 | 0.00 | 0.00 | 59 | 1020.0 |
| 20260502121336 | 11 | 45 | 11.3 | 12.9 | 0.00 | 0.00 | 0.00 | 59 | 1020.0 |
| 20260502120836 | 11 | 90 | 6.4 | 14.5 | 0.00 | 0.00 | 0.00 | 60 | 1020.0 |
| 20260502120336 | 11 | 67 | 12.9 | 16.1 | 0.00 | 0.00 | 0.00 | 61 | 1020.1 |
| 20260502115836 | 11 | 45 | 9.7 | 22.5 | 0.00 | 0.00 | 0.00 | 60 | 1020.2 |
| 20260502115336 | 12 | 22 | 14.5 | 16.1 | 0.00 | 0.00 | 0.00 | 58 | 1020.2 |
| 20260502114836 | 12 | 22 | 6.4 | 8.0 | 0.00 | 0.00 | 0.00 | 55 | 1020.1 |
| 20260502114336 | 13 | 45 | 8.0 | 11.3 | 0.00 | 0.00 | 0.00 | 54 | 1020.1 |
| 20260502113836 | 13 | 67 | 6.4 | 16.1 | 0.00 | 0.00 | 0.00 | 54 | 1020.1 |
| 20260502113336 | 13 | 112 | 6.4 | 9.7 | 0.00 | 0.00 | 0.00 | 55 | 1020.1 |
| 20260502112836 | 12 | 45 | 3.2 | 17.7 | 0.00 | 0.00 | 0.00 | 57 | 1020.1 |
| 20260502112337 | 12 | 112 | 6.4 | 14.5 | 0.00 | 0.00 | 0.00 | 59 | 1020.1 |
| 20260502111836 | 12 | 90 | 4.8 | 11.3 | 0.00 | 0.00 | 0.00 | 59 | 1020.0 |
| 20260502111336 | 12 | 135 | 8.0 | 12.9 | 0.00 | 0.00 | 0.00 | 58 | 1019.9 |
| 20260502110836 | 12 | 112 | 8.0 | 14.5 | 0.00 | 0.00 | 0.00 | 54 | 1019.8 |
| 20260502110336 | 13 | 45 | 4.8 | 12.9 | 0.00 | 0.00 | 0.00 | 52 | 1019.8 |
| 20260502105836 | 15 | 22 | 8.0 | 16.1 | 0.00 | 0.00 | 0.00 | 49 | 1019.9 |
| 20260502105336 | 16 | 0 | 9.7 | 17.7 | 0.00 | 0.00 | 0.00 | 47 | 1019.9 |
| 20260502104836 | 16 | 67 | 1.6 | 9.7 | 0.00 | 0.00 | 0.00 | 45 | 1019.9 |
| 20260502104336 | 15 | 45 | 4.8 | 11.3 | 0.00 | 0.00 | 0.00 | 47 | 1019.9 |
| 20260502103836 | 13 | 22 | 6.4 | 9.7 | 0.00 | 0.00 | 0.00 | 49 | 1019.9 |
| 20260502103336 | 12 | 22 | 11.3 | 12.9 | 0.00 | 0.00 | 0.00 | 51 | 1019.8 |
| 20260502102836 | 12 | 22 | 6.4 | 6.4 | 0.00 | 0.00 | 0.00 | 51 | 1019.8 |
| 20260502102336 | 11 | 22 | 4.8 | 16.1 | 0.00 | 0.00 | 0.00 | 52 | 1019.9 |
| 20260502101836 | 11 | 67 | 16.1 | 22.5 | 0.00 | 0.00 | 0.00 | 52 | 1019.8 |
| 20260502101336 | 12 | 22 | 19.3 | 22.5 | 0.00 | 0.00 | 0.00 | 52 | 1019.8 |
| 20260502100836 | 12 | 22 | 20.9 | 29.0 | 0.00 | 0.00 | 0.00 | 51 | 1019.9 |
| 20260502100336 | 13 | 22 | 14.5 | 22.5 | 0.00 | 0.00 | 0.00 | 47 | 1019.8 |
| 20260502091337 | 17 | 135 | 3.2 | 14.5 | 0.00 | 0.00 | 0.00 | 46 | 1019.7 |
| 20260502090836 | 18 | 45 | 6.4 | 9.7 | 0.00 | 0.00 | 0.00 | 47 | 1019.8 |
| 20260502090336 | 17 | 45 | 6.4 | 9.7 | 0.00 | 0.00 | 0.00 | 48 | 1019.9 |
| 20260502071337 | 12 | 45 | 4.8 | 9.7 | 0.00 | 0.00 | 0.00 | 54 | 1020.2 |
| 20260502070837 | 11 | 0 | 4.8 | 9.7 | 0.00 | 0.00 | 0.00 | 57 | 1020.1 |
| 20260502070337 | 11 | 0 | 4.8 | 9.7 | 0.00 | 0.00 | 0.00 | 57 | 1019.9 |
| 20260502065837 | 11 | 337 | 11.3 | 11.3 | 0.00 | 0.00 | 0.00 | 57 | 1019.9 |
| 20260502065337 | 11 | 22 | 11.3 | 12.9 | 0.00 | 0.00 | 0.00 | 58 | 1020.0 |
| 20260502064837 | 11 | 0 | 12.9 | 12.9 | 0.00 | 0.00 | 0.00 | 58 | 1020.0 |
| 20260502064337 | 11 | 337 | 4.8 | 14.5 | 0.00 | 0.00 | 0.00 | 58 | 1020.0 |
| 20260502063837 | 10 | 0 | 3.2 | 9.7 | 0.00 | 0.00 | 0.00 | 58 | 1019.9 |
| 20260502063337 | 10 | 0 | 1.6 | 8.0 | 0.00 | 0.00 | 0.00 | 59 | 1019.9 |
| 20260502062837 | 10 | 0 | 3.2 | 11.3 | 0.00 | 0.00 | 0.00 | 58 | 1019.9 |
| 20260502062337 | 11 | 22 | 3.2 | 9.7 | 0.00 | 0.00 | 0.00 | 58 | 1019.9 |
| 20260502061837 | 11 | 0 | 3.2 | 8.0 | 0.00 | 0.00 | 0.00 | 57 | 1019.7 |
| 20260502061337 | 11 | 22 | 6.4 | 9.7 | 0.00 | 0.00 | 0.00 | 58 | 1019.7 |
| 20260502060837 | 11 | 0 | 3.2 | 9.7 | 0.00 | 0.00 | 0.00 | 57 | 1019.7 |
| 20260502060337 | 11 | 0 | 4.8 | 14.5 | 0.00 | 0.00 | 0.00 | 57 | 1019.8 |
| 20260502055837 | 11 | 0 | 3.2 | 9.7 | 0.00 | 0.00 | 0.00 | 57 | 1019.7 |
| 20260502055337 | 11 | 337 | 0.0 | 11.3 | 0.00 | 0.00 | 0.00 | 57 | 1019.8 |
| 20260502054837 | 11 | 292 | 4.8 | 8.0 | 0.00 | 0.00 | 0.00 | 57 | 1019.7 |
| 20260502054337 | 11 | 0 | 6.4 | 6.4 | 0.00 | 0.00 | 0.00 | 57 | 1019.8 |
| 20260502053837 | 11 | 0 | 3.2 | 6.4 | 0.00 | 0.00 | 0.00 | 59 | 1019.8 |
| 20260502053337 | 10 | 247 | 0.0 | 3.2 | 0.00 | 0.00 | 0.00 | 60 | 1019.7 |
| 20260502052837 | 10 | 315 | 0.0 | 6.4 | 0.00 | 0.00 | 0.00 | 59 | 1019.8 |
| 20260502052337 | 10 | 337 | 3.2 | 4.8 | 0.00 | 0.00 | 0.00 | 60 | 1019.8 |
| 20260502051837 | 10 | 315 | 1.6 | 3.2 | 0.00 | 0.00 | 0.00 | 61 | 1019.9 |
| 20260502051337 | 10 | 315 | 3.2 | 3.2 | 0.00 | 0.00 | 0.00 | 61 | 1019.9 |
| 20260502050837 | 10 | 315 | 0.0 | 3.2 | 0.00 | 0.00 | 0.00 | 61 | 1019.9 |
| 20260502050337 | 9 | 337 | 0.0 | 3.2 | 0.00 | 0.00 | 0.00 | 62 | 1019.9 |
| 20260502045837 | 9 | 315 | 3.2 | 3.2 | 0.00 | 0.00 | 0.00 | 62 | 1019.5 |
| 20260502045337 | 9 | 22 | 0.0 | 1.6 | 0.00 | 0.00 | 0.00 | 62 | 1019.4 |
| 20260502044837 | 8 | 337 | 0.0 | 1.6 | 0.00 | 0.00 | 0.00 | 62 | 1019.3 |
| 20260502044337 | 8 | 22 | 1.6 | 3.2 | 0.00 | 0.00 | 0.00 | 62 | 1019.4 |
| 20260502043837 | 8 | 0 | 0.0 | 6.4 | 0.00 | 0.00 | 0.00 | 62 | 1019.4 |
| 20260502043337 | 8 | 337 | 4.8 | 4.8 | 0.00 | 0.00 | 0.00 | 62 | 1019.6 |
| 20260502042837 | 8 | 315 | 3.2 | 6.4 | 0.00 | 0.00 | 0.00 | 61 | 1019.5 |
| 20260502042337 | 8 | 315 | 1.6 | 4.8 | 0.00 | 0.00 | 0.00 | 61 | 1019.6 |
| 20260502041837 | 8 | 315 | 4.8 | 6.4 | 0.00 | 0.00 | 0.00 | 61 | 1019.6 |
| 20260502041337 | 8 | 337 | 0.0 | 4.8 | 0.00 | 0.00 | 0.00 | 61 | 1019.5 |
| 20260502040837 | 8 | 22 | 3.2 | 6.4 | 0.00 | 0.00 | 0.00 | 61 | 1019.6 |
| 20260502040337 | 8 | 0 | 3.2 | 4.8 | 0.00 | 0.00 | 0.00 | 61 | 1019.6 |
| 20260502035837 | 8 | 0 | 3.2 | 6.4 | 0.00 | 0.00 | 0.00 | 61 | 1019.6 |
| 20260502035337 | 7 | 337 | 3.2 | 4.8 | 0.00 | 0.00 | 0.00 | 61 | 1019.6 |
| 20260502034837 | 7 | 315 | 4.8 | 4.8 | 0.00 | 0.00 | 0.00 | 61 | 1019.6 |
| 20260502034337 | 7 | 315 | 3.2 | 6.4 | 0.00 | 0.00 | 0.00 | 61 | 1019.5 |
| 20260502033837 | 7 | 315 | 3.2 | 6.4 | 0.00 | 0.00 | 0.00 | 61 | 1019.5 |
| 20260502033337 | 6 | 292 | 1.6 | 6.4 | 0.00 | 0.00 | 0.00 | 62 | 1019.4 |
| 20260502032837 | 6 | 292 | 6.4 | 8.0 | 0.00 | 0.00 | 0.00 | 63 | 1019.5 |
| 20260502032337 | 6 | 337 | 0.0 | 6.4 | 0.00 | 0.00 | 0.00 | 63 | 1019.6 |
| 20260502031837 | 6 | 337 | 3.2 | 8.0 | 0.00 | 0.00 | 0.00 | 63 | 1019.6 |
| 20260502031337 | 6 | 292 | 3.2 | 6.4 | 0.00 | 0.00 | 0.00 | 62 | 1019.5 |
| 20260502030837 | 6 | 270 | 1.6 | 6.4 | 0.00 | 0.00 | 0.00 | 62 | 1019.6 |
| 20260502030337 | 6 | 292 | 3.2 | 4.8 | 0.00 | 0.00 | 0.00 | 61 | 1019.6 |
| 20260502025837 | 6 | 315 | 4.8 | 8.0 | 0.00 | 0.00 | 0.00 | 61 | 1019.5 |
| 20260502025337 | 5 | 0 | 6.4 | 9.7 | 0.00 | 0.00 | 0.00 | 61 | 1019.5 |
| 20260502024837 | 5 | 292 | 3.2 | 4.8 | 0.00 | 0.00 | 0.00 | 61 | 1019.5 |
| 20260502024337 | 5 | 337 | 1.6 | 8.0 | 0.00 | 0.00 | 0.00 | 61 | 1019.5 |
| 20260502023837 | 5 | 292 | 8.0 | 9.7 | 0.00 | 0.00 | 0.00 | 61 | 1019.5 |
| 20260502023337 | 5 | 292 | 1.6 | 4.8 | 0.00 | 0.00 | 0.00 | 60 | 1019.6 |
| 20260502022837 | 6 | 292 | 1.6 | 6.4 | 0.00 | 0.00 | 0.00 | 59 | 1019.6 |
| 20260502022337 | 6 | 270 | 0.0 | 8.0 | 0.00 | 0.00 | 0.00 | 59 | 1019.6 |
| 20260502021837 | 5 | 292 | 9.7 | 9.7 | 0.00 | 0.00 | 0.00 | 60 | 1019.7 |
| 20260502021337 | 5 | 337 | 0.0 | 9.7 | 0.00 | 0.00 | 0.00 | 60 | 1019.7 |
| 20260502020837 | 5 | 292 | 1.6 | 6.4 | 0.00 | 0.00 | 0.00 | 59 | 1019.7 |
| 20260502020337 | 6 | 225 | 1.6 | 8.0 | 0.00 | 0.00 | 0.00 | 59 | 1019.7 |
| 20260502015837 | 6 | 292 | 8.0 | 8.0 | 0.00 | 0.00 | 0.00 | 59 | 1019.7 |
| 20260502015337 | 6 | 337 | 3.2 | 9.7 | 0.00 | 0.00 | 0.00 | 58 | 1019.8 |
| 20260502014837 | 6 | 315 | 8.0 | 8.0 | 0.00 | 0.00 | 0.00 | 58 | 1019.8 |
| 20260502014337 | 6 | 270 | 3.2 | 6.4 | 0.00 | 0.00 | 0.00 | 58 | 1019.7 |
| 20260502013837 | 6 | 315 | 1.6 | 6.4 | 0.00 | 0.00 | 0.00 | 58 | 1019.8 |
| 20260502013337 | 6 | 292 | 4.8 | 8.0 | 0.00 | 0.00 | 0.00 | 58 | 1019.8 |
| 20260502012837 | 6 | 315 | 3.2 | 9.7 | 0.00 | 0.00 | 0.00 | 58 | 1019.8 |
| 20260502012337 | 6 | 292 | 3.2 | 4.8 | 0.00 | 0.00 | 0.00 | 58 | 1019.8 |
| 20260502011837 | 6 | 270 | 3.2 | 6.4 | 0.00 | 0.00 | 0.00 | 59 | 1019.9 |
| 20260502011337 | 6 | 0 | 3.2 | 9.7 | 0.00 | 0.00 | 0.00 | 59 | 1020.0 |
| 20260502010837 | 6 | 292 | 4.8 | 6.4 | 0.00 | 0.00 | 0.00 | 59 | 1020.0 |
| 20260502010337 | 6 | 337 | 4.8 | 9.7 | 0.00 | 0.00 | 0.00 | 59 | 1020.0 |
| 20260502005837 | 6 | 270 | 1.6 | 9.7 | 0.00 | 0.00 | 0.00 | 59 | 1020.1 |
| 20260502005337 | 6 | 270 | 1.6 | 11.3 | 0.00 | 0.00 | 0.00 | 59 | 1020.0 |
| 20260502004837 | 6 | 292 | 11.3 | 12.9 | 0.00 | 0.00 | 0.00 | 59 | 1020.1 |
| 20260502004337 | 6 | 292 | 8.0 | 12.9 | 0.00 | 0.00 | 0.00 | 60 | 1020.1 |
| 20260502003837 | 6 | 292 | 3.2 | 8.0 | 0.00 | 0.00 | 0.00 | 61 | 1020.2 |
| 20260502003337 | 6 | 270 | 1.6 | 9.7 | 0.00 | 0.00 | 0.00 | 61 | 1020.2 |
| 20260502002837 | 6 | 315 | 3.2 | 6.4 | 0.00 | 0.00 | 0.00 | 62 | 1020.2 |
| 20260502002337 | 6 | 315 | 3.2 | 6.4 | 0.00 | 0.00 | 0.00 | 62 | 1020.3 |
| 20260502001837 | 5 | 270 | 3.2 | 4.8 | 0.00 | 0.00 | 0.00 | 62 | 1020.4 |
| 20260502001337 | 5 | 270 | 0.0 | 4.8 | 0.00 | 0.00 | 0.00 | 63 | 1020.4 |
| 20260502000837 | 5 | 315 | 3.2 | 4.8 | 0.00 | 0.00 | 0.00 | 64 | 1020.4 |
| 20260502000339 | 5 | 292 | 1.6 | 6.4 | 0.00 | 0.00 | 0.00 | 65 | 1020.4 |
| 20260501235837 | 5 | 270 | 0.0 | 4.8 | 0.00 | 0.00 | 0.00 | 66 | 1020.5 |
| 20260501235337 | 5 | 292 | 1.6 | 6.4 | 0.00 | 0.00 | 0.00 | 67 | 1020.5 |
| 20260501234837 | 4 | 292 | 3.2 | 4.8 | 0.00 | 0.00 | 0.00 | 69 | 1020.5 |
| 20260501234337 | 3 | 292 | 1.6 | 4.8 | 0.00 | 0.00 | 0.00 | 71 | 1020.5 |
| 20260501233837 | 3 | 270 | 0.0 | 6.4 | 0.00 | 0.00 | 0.00 | 73 | 1020.6 |
| 20260501233337 | 2 | 337 | 1.6 | 3.2 | 0.00 | 0.00 | 0.00 | 75 | 1020.6 |
| 20260501232837 | 1 | 292 | 0.0 | 3.2 | 0.00 | 0.00 | 0.00 | 75 | 1020.6 |
| 20260501232337 | 1 | 45 | 0.0 | 0.0 | 0.00 | 0.00 | 0.00 | 75 | 1020.7 |
| 20260501231837 | 1 | 292 | 0.0 | 0.0 | 0.00 | 0.00 | 0.00 | 75 | 1020.8 |
| 20260501231337 | 1 | 180 | 0.0 | 0.0 | 0.00 | 0.00 | 0.00 | 75 | 1020.8 |